Location: Navajo
(48.7922°N, 105.0603°W)
Time: 05:07:00
(UTC+00:00)

ITUPSAT 1 - Pass Details

Date: 07 July 2022
Orbit: 701 x 711 km, 98.6° (Epoch: 07 August)

Event Time Altitude Azimuth Distance (km) Brightness Sun altitude
Rises 03:50:46 0° 12° (NNE) 3,115 ? -6.5°
Reaches altitude 10° 03:53:03 10° 10° (N) 2,193 ? -6.8°
Maximum altitude 03:57:49 70° 288° (WNW) 759 ? -7.3°
Drops below altitude 10° 04:02:35 10° 206° (SSW) 2,181 ? -7.8°
Sets 04:04:50 0° 204° (SSW) 3,097 ? -8.1°
